Location: Stuttgart
(48.8069°N, 9.1544°E)
Time: 07:26:06
(UTC+02:00)

ISS - Visible Passes

Search period start: 29 March 2017 00:00
Search period end: 08 April 2017 00:00
Orbit: 399 x 409 km, 51.6° (Epoch: 29 March)

Date Brightness Start Highest point End Pass type
(mag) Time Alt. Az. Time Alt. Az. Time Alt. Az.
29 Mar -3.9 21:41:55 10° WSW 21:45:05 69° SSE 21:45:05 69° SSE visible
30 Mar -3.4 20:49:43 10° SW 20:52:51 44° SSE 20:55:19 15° E visible
30 Mar -2.1 22:26:03 10° W 22:28:00 31° WNW 22:28:00 31° WNW visible
31 Mar -3.7 21:33:35 10° WSW 21:36:51 74° NNW 21:38:02 36° ENE visible
31 Mar -0.6 23:10:21 10° WNW 23:10:43 12° WNW 23:10:43 12° WNW visible
01 Apr -3.9 20:41:10 10° WSW 20:44:26 80° SSE 20:47:43 10° ENE visible
01 Apr -2.8 22:17:52 10° W 22:20:37 45° NNW 22:20:37 45° NNW visible
02 Apr -3.3 21:25:20 10° W 21:28:33 55° N 21:30:24 22° ENE visible
02 Apr -1.0 23:02:03 10° WNW 23:03:04 18° WNW 23:03:04 18° WNW visible
03 Apr -3.5 20:32:49 10° W 20:36:03 68° NNW 20:39:20 10° ENE visible
03 Apr -3.2 22:09:35 10° WNW 22:12:46 50° N 22:12:46 50° N visible
04 Apr -3.1 21:17:04 10° WNW 21:20:15 49° N 21:22:25 18° ENE visible
04 Apr -1.5 22:53:39 10° WNW 22:55:04 23° WNW 22:55:04 23° WNW visible
05 Apr -3.6 22:01:11 10° WNW 22:04:26 61° NNE 22:04:40 59° NE visible
06 Apr -3.2 21:08:41 10° WNW 21:11:54 52° N 21:14:15 17° E visible
06 Apr -1.9 22:45:12 10° WNW 22:46:54 27° W 22:46:54 27° W visible
07 Apr -3.9 21:52:42 10° WNW 21:55:59 88° NNE 21:56:28 62° ESE visible
